| time (UTC) | temp C | wind direction | speed KPH | gust KPH | rain 1hr cm | rain 24hr cm | rain mn cm | humidity % | barometer mb |
| 20260506044144 | 11 | 305 | 0.0 | 4.8 | 0.00 | 0.00 | 0.46 | 99 | 1014.8 |
| 20260506043016 | 11 | 102 | 0.0 | 0.0 | 0.00 | 0.00 | 0.46 | 99 | 1015.1 |
| 20260506041849 | 11 | 197 | 0.0 | 3.2 | 0.00 | 0.00 | 0.46 | 99 | 1015.4 |
| 20260506040721 | 11 | 185 | 0.0 | 0.0 | 0.00 | 0.00 | 0.46 | 99 | 1015.6 |
| 20260506035554 | 11 | 312 | 0.0 | 4.8 | 0.00 | 0.00 | 0.46 | 99 | 1015.5 |
| 20260506034427 | 11 | 348 | 0.0 | 0.0 | 0.00 | 0.00 | 0.46 | 99 | 1015.5 |
| 20260506033259 | 11 | 342 | 0.0 | 3.2 | 0.00 | 0.00 | 0.46 | 99 | 1015.6 |
| 20260506032132 | 11 | 336 | 0.0 | 3.2 | 0.03 | 0.00 | 0.46 | 99 | 1015.5 |
| 20260506031004 | 11 | 336 | 0.0 | 0.0 | 0.13 | 0.00 | 0.46 | 99 | 1015.7 |
| 20260506025837 | 11 | 336 | 0.0 | 3.2 | 0.23 | 0.00 | 0.46 | 99 | 1015.7 |
| 20260506024709 | 11 | 312 | 0.0 | 4.8 | 0.36 | 0.00 | 0.46 | 99 | 1015.8 |
| 20260506023542 | 11 | 344 | 0.0 | 6.4 | 0.43 | 0.00 | 0.46 | 99 | 1016.1 |
| 20260506022414 | 11 | 330 | 0.0 | 3.2 | 0.43 | 0.00 | 0.46 | 99 | 1016.4 |
| 20260506021247 | 11 | 144 | 0.0 | 0.0 | 0.33 | 0.00 | 0.36 | 99 | 1016.7 |
| 20260506020107 | 11 | 171 | 0.0 | 4.8 | 0.23 | 0.00 | 0.25 | 99 | 1016.9 |
| 20260506014939 | 11 | 204 | 3.2 | 6.4 | 0.10 | 0.00 | 0.13 | 99 | 1017.2 |
| 20260506013812 | 11 | 127 | 3.2 | 3.2 | 0.03 | 0.00 | 0.03 | 99 | 1017.4 |
| 20260506012644 | 11 | 203 | 0.0 | 0.0 | 0.03 | 0.00 | 0.03 | 99 | 1017.3 |
| 20260506011517 | 11 | 138 | 0.0 | 0.0 | 0.03 | 0.00 | 0.03 | 99 | 1017.3 |
| 20260506010349 | 11 | 180 | 0.0 | 0.0 | 0.03 | 0.00 | 0.03 | 99 | 1017.6 |
| 20260506005222 | 11 | 186 | 8.0 | 8.0 | 0.03 | 0.00 | 0.03 | 99 | 1017.8 |
| 20260506004054 | 10 | 185 | 0.0 | 0.0 | 0.03 | 0.00 | 0.03 | 99 | 1017.8 |
| 20260506002927 | 10 | 133 | 0.0 | 3.2 | 0.00 | 0.00 | 0.00 | 99 | 1017.5 |
| 20260506001759 | 10 | 140 | 0.0 | 0.0 | 0.00 | 0.00 | 0.00 | 99 | 1017.8 |
| 20260506000632 | 10 | 155 | 0.0 | 0.0 | 0.00 | 0.00 | 0.00 | 99 | 1018.0 |
| 20260505235452 | 10 | 155 | 0.0 | 0.0 | 0.00 | 0.00 | 0.00 | 99 | 1018.2 |
| 20260505234324 | 10 | 154 | 0.0 | 0.0 | 0.00 | 0.00 | 0.00 | 99 | 1018.2 |
| 20260505233157 | 10 | 154 | 0.0 | 0.0 | 0.00 | 0.00 | 0.00 | 99 | 1018.2 |
| 20260505232029 | 11 | 142 | 0.0 | 0.0 | 0.00 | 0.00 | 0.00 | 99 | 1018.3 |
| 20260505230902 | 11 | 142 | 0.0 | 0.0 | 0.00 | 0.00 | 0.00 | 99 | 1018.4 |
| 20260505225735 | 10 | 159 | 0.0 | 6.4 | 0.00 | 0.00 | 1.65 | 99 | 1018.4 |
| 20260505224607 | 11 | 144 | 0.0 | 4.8 | 0.00 | 0.00 | 1.65 | 99 | 1018.5 |
| 20260505223440 | 11 | 162 | 0.0 | 4.8 | 0.00 | 0.00 | 1.65 | 99 | 1018.7 |
| 20260505222312 | 11 | 160 | 4.8 | 6.4 | 0.00 | 0.00 | 1.65 | 99 | 1018.8 |
| 20260505221145 | 11 | 174 | 0.0 | 3.2 | 0.00 | 0.00 | 1.65 | 99 | 1018.7 |
| 20260505220017 | 11 | 126 | 0.0 | 3.2 | 0.00 | 0.00 | 1.65 | 99 | 1018.7 |
| 20260505214850 | 11 | 156 | 4.8 | 4.8 | 0.00 | 0.00 | 1.65 | 99 | 1019.1 |
| 20260505213722 | 11 | 164 | 0.0 | 4.8 | 0.00 | 0.00 | 1.65 | 99 | 1019.0 |
| 20260505212554 | 11 | 143 | 0.0 | 1.6 | 0.00 | 0.00 | 1.65 | 99 | 1019.2 |
| 20260505211427 | 12 | 145 | 0.0 | 3.2 | 0.00 | 0.00 | 1.65 | 99 | 1019.2 |
| 20260505210259 | 12 | 189 | 0.0 | 0.0 | 0.00 | 0.00 | 1.65 | 99 | 1019.2 |
| 20260505205107 | 12 | 126 | 0.0 | 0.0 | 0.00 | 0.00 | 1.65 | 99 | 1019.3 |
| 20260505203939 | 12 | 123 | 0.0 | 0.0 | 0.00 | 0.00 | 1.65 | 99 | 1019.3 |
| 20260505202812 | 12 | 133 | 0.0 | 0.0 | 0.00 | 0.00 | 1.65 | 99 | 1019.3 |
| 20260505201644 | 12 | 133 | 0.0 | 0.0 | 0.00 | 0.00 | 1.65 | 98 | 1019.3 |
| 20260505200517 | 12 | 133 | 0.0 | 0.0 | 0.00 | 0.00 | 1.65 | 98 | 1019.3 |
| 20260505195349 | 12 | 133 | 0.0 | 0.0 | 0.00 | 0.00 | 1.65 | 97 | 1019.3 |
| 20260505194222 | 12 | 133 | 0.0 | 0.0 | 0.00 | 0.00 | 1.65 | 97 | 1019.3 |
| 20260505193054 | 13 | 39 | 0.0 | 0.0 | 0.00 | 0.00 | 1.65 | 95 | 1019.1 |
| 20260505191927 | 13 | 36 | 0.0 | 0.0 | 0.00 | 0.00 | 1.65 | 94 | 1019.1 |
| 20260505190759 | 13 | 33 | 0.0 | 0.0 | 0.00 | 0.00 | 1.65 | 94 | 1019.1 |
| 20260505185632 | 14 | 33 | 0.0 | 0.0 | 0.00 | 0.00 | 1.65 | 92 | 1019.0 |
| 20260505184504 | 14 | 33 | 0.0 | 0.0 | 0.00 | 0.00 | 1.65 | 92 | 1019.0 |
| 20260505183337 | 14 | 144 | 0.0 | 0.0 | 0.00 | 0.00 | 1.65 | 91 | 1019.0 |
| 20260505182209 | 14 | 144 | 0.0 | 0.0 | 0.00 | 0.00 | 1.65 | 90 | 1019.0 |
| 20260505181042 | 14 | 144 | 0.0 | 0.0 | 0.00 | 0.00 | 1.65 | 90 | 1018.9 |
| 20260505175914 | 15 | 144 | 0.0 | 0.0 | 0.00 | 0.00 | 1.65 | 89 | 1018.8 |
| 20260505174747 | 15 | 144 | 0.0 | 0.0 | 0.00 | 0.00 | 1.65 | 90 | 1018.8 |
| 20260505173619 | 14 | 144 | 0.0 | 0.0 | 0.00 | 0.00 | 1.65 | 92 | 1018.8 |
| 20260505172452 | 15 | 162 | 0.0 | 0.0 | 0.00 | 0.00 | 1.65 | 90 | 1018.8 |
| 20260505171325 | 15 | 162 | 0.0 | 0.0 | 0.00 | 0.00 | 1.65 | 88 | 1018.8 |
| 20260505170157 | 15 | 164 | 0.0 | 1.6 | 0.00 | 0.00 | 1.65 | 88 | 1018.9 |
| 20260505165030 | 15 | 163 | 0.0 | 0.0 | 0.00 | 0.00 | 1.65 | 87 | 1018.9 |
| 20260505163902 | 15 | 165 | 0.0 | 1.6 | 0.00 | 0.00 | 1.65 | 86 | 1018.9 |
| 20260505162735 | 15 | 122 | 0.0 | 0.0 | 0.00 | 0.00 | 1.65 | 86 | 1018.9 |
| 20260505161607 | 15 | 120 | 0.0 | 1.6 | 0.00 | 0.00 | 1.65 | 85 | 1019.0 |
| 20260505160440 | 15 | 116 | 0.0 | 0.0 | 0.00 | 0.00 | 1.65 | 86 | 1019.0 |
| 20260505153005 | 16 | 163 | 0.0 | 0.0 | 0.00 | 0.00 | 1.65 | 80 | 1019.2 |
| 20260505151837 | 16 | 114 | 0.0 | 0.0 | 0.00 | 0.00 | 1.65 | 79 | 1019.1 |
| 20260505150710 | 16 | 198 | 0.0 | 3.2 | 0.00 | 0.00 | 1.65 | 80 | 1019.2 |
| 20260505124927 | 15 | 270 | 0.0 | 3.2 | 0.00 | 0.00 | 1.65 | 85 | 1019.9 |
| 20260505123759 | 13 | 172 | 0.0 | 0.0 | 0.00 | 0.00 | 1.65 | 85 | 1020.1 |
| 20260505122632 | 13 | 82 | 0.0 | 0.0 | 0.00 | 0.00 | 1.65 | 86 | 1020.2 |
| 20260505121504 | 13 | 87 | 0.0 | 0.0 | 0.00 | 0.00 | 1.65 | 90 | 1020.1 |
| 20260505120337 | 13 | 87 | 0.0 | 0.0 | 0.00 | 0.00 | 1.65 | 89 | 1020.1 |
| 20260505115209 | 13 | 75 | 0.0 | 0.0 | 0.00 | 0.00 | 1.65 | 88 | 1020.2 |
| 20260505114042 | 13 | 348 | 0.0 | 0.0 | 0.00 | 0.00 | 1.65 | 90 | 1020.2 |
| 20260505112914 | 13 | 359 | 0.0 | 0.0 | 0.00 | 0.00 | 1.65 | 90 | 1020.3 |
| 20260505111747 | 13 | 354 | 0.0 | 4.8 | 0.00 | 0.00 | 1.65 | 93 | 1020.3 |
| 20260505110619 | 13 | 292 | 0.0 | 3.2 | 0.00 | 0.00 | 1.65 | 94 | 1020.4 |
| 20260505100850 | 12 | 198 | 0.0 | 0.0 | 0.00 | 0.00 | 1.65 | 96 | 1020.5 |
| 20260505095722 | 12 | 180 | 0.0 | 0.0 | 0.00 | 0.00 | 1.65 | 97 | 1020.5 |
| 20260505094555 | 12 | 186 | 0.0 | 0.0 | 0.00 | 0.00 | 1.65 | 97 | 1020.5 |
| 20260505093427 | 12 | 84 | 0.0 | 0.0 | 0.00 | 0.00 | 1.65 | 98 | 1020.5 |
| 20260505092300 | 12 | 81 | 0.0 | 0.0 | 0.00 | 0.00 | 1.65 | 98 | 1020.5 |
| 20260505091132 | 12 | 78 | 0.0 | 0.0 | 0.03 | 0.00 | 1.65 | 98 | 1020.5 |
| 20260505090005 | 12 | 76 | 0.0 | 0.0 | 0.03 | 0.00 | 1.65 | 99 | 1020.3 |
| 20260505084837 | 11 | 76 | 0.0 | 0.0 | 0.03 | 0.00 | 1.65 | 99 | 1020.4 |
| 20260505083710 | 11 | 76 | 0.0 | 0.0 | 0.03 | 0.00 | 1.65 | 99 | 1020.4 |
| 20260505082542 | 11 | 76 | 0.0 | 0.0 | 0.03 | 0.00 | 1.65 | 98 | 1020.3 |
| 20260505081415 | 11 | 190 | 0.0 | 0.0 | 0.00 | 0.00 | 1.63 | 99 | 1020.4 |
| 20260505080247 | 11 | 222 | 0.0 | 0.0 | 0.00 | 0.00 | 1.63 | 99 | 1020.3 |
| 20260505075120 | 11 | 327 | 0.0 | 0.0 | 0.00 | 0.00 | 1.63 | 99 | 1020.3 |
| 20260505073952 | 11 | 327 | 0.0 | 0.0 | 0.00 | 0.00 | 1.63 | 99 | 1020.2 |
| 20260505072825 | 11 | 306 | 0.0 | 0.0 | 0.00 | 0.00 | 1.63 | 99 | 1020.1 |
| 20260505071658 | 11 | 312 | 0.0 | 0.0 | 0.00 | 0.00 | 1.63 | 99 | 1020.2 |
| 20260505070530 | 11 | 327 | 0.0 | 0.0 | 0.00 | 0.00 | 1.63 | 99 | 1020.1 |
| 20260505065403 | 11 | 336 | 0.0 | 4.8 | 0.00 | 0.00 | 1.63 | 99 | 1020.1 |
| 20260505064235 | 11 | 276 | 0.0 | 0.0 | 0.00 | 0.00 | 1.63 | 99 | 1020.2 |
| 20260505063108 | 11 | 309 | 1.6 | 1.6 | 0.03 | 0.00 | 1.63 | 99 | 1020.2 |
| 20260505061940 | 11 | 186 | 0.0 | 1.6 | 0.03 | 0.00 | 1.63 | 99 | 1020.1 |
| 20260505060813 | 11 | 309 | 1.6 | 3.2 | 0.03 | 0.00 | 1.63 | 99 | 1019.9 |
| 20260505055645 | 11 | 327 | 0.0 | 3.2 | 0.13 | 0.00 | 1.63 | 99 | 1019.9 |
| 20260505054517 | 11 | 312 | 0.0 | 1.6 | 0.28 | 0.00 | 1.63 | 99 | 1019.7 |
| 20260505053350 | 11 | 318 | 0.0 | 4.8 | 0.46 | 0.00 | 1.63 | 99 | 1019.6 |
| 20260505052222 | 11 | 40 | 0.0 | 1.6 | 0.58 | 0.00 | 1.63 | 99 | 1019.8 |
| 20260505051055 | 11 | 84 | 0.0 | 3.2 | 0.71 | 0.00 | 1.63 | 99 | 1019.5 |